When you browse on this site, cookies collect data to enhance your experience and personalize the content and advertising you see.
Visit our Privacy Policy to learn more. By continuing to use the site, you agree to this use of cookies and data.
  • In Hungary
  • List of Countries
  • For 7 days
  • Water Temperature
  • Satellite Maps
  • Weather Map
  • News
  • Weather Widgets
  • user-avatar
    Login

    Hourly Weather Moncada

    Today, 19 January, Saturday

    Time Temperature Precipitation Wind Pressure Humidity
    00:00 +7°C° 0 mm 3 mps 759 mmHg 48%
    01:00 +5°C° 0 mm 3 mps 759 mmHg 48%
    02:00 +5°C° 0 mm 3 mps 759 mmHg 48%
    03:00 +5°C° 0 mm 3 mps 759 mmHg 48%
    04:00 +4°C° 0 mm 3 mps 759 mmHg 50%
    05:00 +4°C° 0 mm 3 mps 759 mmHg 51%
    06:00 +4°C° 0 mm 3 mps 759 mmHg 53%
    07:00 +5°C° 0 mm 3 mps 759 mmHg 52%
    08:00 +7°C° 0 mm 3 mps 759 mmHg 52%
    09:00 +8°C° 0 mm 3 mps 759 mmHg 51%
    10:00 +10°C° 0 mm 3 mps 759 mmHg 47%
    11:00 +12°C° 0 mm 3 mps 758 mmHg 43%
    12:00 +14°C° 0 mm 3 mps 758 mmHg 39%
    13:00 +15°C° 0 mm 4 mps 757 mmHg 38%
    14:00 +15°C° 0 mm 4 mps 757 mmHg 37%
    15:00 +17°C° 0 mm 4 mps 756 mmHg 36%
    16:00 +14°C° 0 mm 4 mps 756 mmHg 41%
    17:00 +13°C° 0 mm 4 mps 756 mmHg 45%
    18:00 +12°C° 0 mm 4 mps 756 mmHg 49%
    19:00 +11°C° 0.6 mm 3 mps 756 mmHg 59%
    20:00 +10°C° 0.6 mm 2 mps 755 mmHg 69%
    21:00 +10°C° 0.6 mm 2 mps 755 mmHg 79%
    22:00 +9°C° 0.4 mm 2 mps 755 mmHg 80%
    23:00 +9°C° 0.4 mm 2 mps 755 mmHg 80%

    Tomorrow, 20 January, Sunday

    Time Temperature Precipitation Wind Pressure Humidity
    00:00 +9°C° 0.4 mm 2 mps 754 mmHg 81%
    01:00 +9°C° 0.1 mm 2 mps 754 mmHg 82%
    02:00 +9°C° 0.1 mm 2 mps 753 mmHg 83%
    03:00 +9°C° 0.1 mm 2 mps 753 mmHg 84%
    04:00 +9°C° 0.7 mm 2 mps 753 mmHg 85%
    05:00 +10°C° 0.7 mm 2 mps 752 mmHg 86%
    06:00 +10°C° 0.7 mm 2 mps 752 mmHg 87%
    07:00 +10°C° 0.7 mm 2 mps 752 mmHg 86%
    08:00 +10°C° 0.7 mm 2 mps 753 mmHg 86%
    09:00 +10°C° 0.7 mm 2 mps 753 mmHg 85%
    10:00 +12°C° 0.3 mm 2 mps 753 mmHg 80%
    11:00 +13°C° 0.3 mm 2 mps 754 mmHg 74%
    12:00 +14°C° 0.3 mm 2 mps 754 mmHg 69%
    13:00 +14°C° 0.1 mm 2 mps 754 mmHg 67%
    14:00 +14°C° 0.1 mm 2 mps 754 mmHg 64%
    15:00 +14°C° 0.1 mm 2 mps 754 mmHg 62%
    16:00 +13°C° 0.1 mm 2 mps 754 mmHg 65%
    17:00 +12°C° 0.1 mm 2 mps 755 mmHg 68%
    18:00 +10°C° 0.1 mm 3 mps 756 mmHg 70%
    19:00 +9°C° 0 mm 3 mps 756 mmHg 70%
    20:00 +8°C° 0 mm 3 mps 757 mmHg 70%
    21:00 +7°C° 0 mm 4 mps 757 mmHg 71%
    22:00 +7°C° 0 mm 4 mps 758 mmHg 71%
    23:00 +7°C° 0 mm 3 mps 758 mmHg 71%

    Day after tomorrow, 21 January, Monday

    Time Temperature Precipitation Wind Pressure Humidity
    00:00 +7°C° 0 mm 3 mps 759 mmHg 71%
    01:00 +7°C° 0 mm 3 mps 759 mmHg 72%
    02:00 +5°C° 0 mm 3 mps 759 mmHg 73%
    03:00 +5°C° 0 mm 3 mps 759 mmHg 73%
    04:00 +5°C° 0 mm 3 mps 759 mmHg 74%
    05:00 +5°C° 0 mm 3 mps 759 mmHg 75%
    06:00 +4°C° 0 mm 3 mps 759 mmHg 75%
    07:00 +5°C° 0 mm 3 mps 760 mmHg 72%
    08:00 +7°C° 0 mm 3 mps 760 mmHg 68%
    09:00 +8°C° 0 mm 3 mps 760 mmHg 65%
    10:00 +10°C° 0 mm 3 mps 760 mmHg 57%
    11:00 +12°C° 0 mm 3 mps 760 mmHg 48%
    12:00 +14°C° 0 mm 3 mps 760 mmHg 40%
    13:00 +15°C° 0 mm 2 mps 760 mmHg 42%
    14:00 +14°C° 0 mm 2 mps 760 mmHg 43%
    15:00 +14°C° 0 mm 2 mps 760 mmHg 44%
    16:00 +13°C° 0 mm 2 mps 760 mmHg 47%
    17:00 +12°C° 0 mm 2 mps 761 mmHg 50%
    18:00 +9°C° 0 mm 3 mps 761 mmHg 54%
    19:00 +8°C° 0 mm 3 mps 762 mmHg 55%
    20:00 +7°C° 0 mm 4 mps 762 mmHg 57%
    21:00 +6°C° 0 mm 4 mps 762 mmHg 59%
    22:00 +5°C° 0 mm 4 mps 763 mmHg 61%
    23:00 +5°C° 0 mm 4 mps 763 mmHg 62%

    22 January, Tuesday

    Time Temperature Precipitation Wind Pressure Humidity
    00:00 +4°C° 0 mm 4 mps 763 mmHg 63%
    01:00 +4°C° 0 mm 4 mps 762 mmHg 64%
    02:00 +3°C° 0 mm 4 mps 762 mmHg 65%
    03:00 +3°C° 0 mm 4 mps 762 mmHg 66%
    04:00 +3°C° 0 mm 4 mps 762 mmHg 65%
    05:00 +3°C° 0 mm 4 mps 761 mmHg 65%
    06:00 +1°C° 0 mm 4 mps 761 mmHg 64%
    07:00 +4°C° 0 mm 4 mps 761 mmHg 60%
    08:00 +5°C° 0 mm 4 mps 761 mmHg 56%
    09:00 +7°C° 0 mm 4 mps 761 mmHg 51%
    10:00 +8°C° 0 mm 5 mps 760 mmHg 47%
    11:00 +10°C° 0 mm 6 mps 759 mmHg 43%
    12:00 +13°C° 0 mm 6 mps 758 mmHg 39%
    13:00 +12°C° 0 mm 7 mps 757 mmHg 42%
    14:00 +12°C° 0 mm 7 mps 756 mmHg 44%
    15:00 +12°C° 0 mm 8 mps 755 mmHg 46%
    16:00 +11°C° 0 mm 7 mps 755 mmHg 48%
    17:00 +10°C° 0 mm 6 mps 754 mmHg 51%
    18:00 +9°C° 0 mm 5 mps 754 mmHg 53%
    19:00 +9°C° 0 mm 5 mps 754 mmHg 55%
    20:00 +9°C° 0 mm 5 mps 754 mmHg 57%
    21:00 +9°C° 0 mm 5 mps 753 mmHg 59%
    22:00 +8°C° 0 mm 6 mps 753 mmHg 57%
    23:00 +8°C° 0 mm 6 mps 752 mmHg 55%

    23 January, Wednesday

    Time Temperature Precipitation Wind Pressure Humidity
    00:00 +6°C° 0 mm 7 mps 752 mmHg 53%
    01:00 +6°C° 0 mm 7 mps 751 mmHg 54%
    02:00 +7°C° 0 mm 6 mps 751 mmHg 55%
    03:00 +7°C° 0 mm 6 mps 751 mmHg 55%
    04:00 +5°C° 0 mm 6 mps 750 mmHg 55%
    05:00 +5°C° 0 mm 6 mps 750 mmHg 54%
    06:00 +5°C° 0 mm 6 mps 750 mmHg 53%
    07:00 +7°C° 0 mm 6 mps 750 mmHg 51%
    08:00 +8°C° 0 mm 7 mps 750 mmHg 49%
    09:00 +8°C° 0 mm 7 mps 750 mmHg 47%
    10:00 +9°C° 0.2 mm 7 mps 749 mmHg 49%
    11:00 +9°C° 0.2 mm 7 mps 749 mmHg 51%
    12:00 +9°C° 0.2 mm 7 mps 748 mmHg 53%
    13:00 +8°C° 0.7 mm 6 mps 748 mmHg 59%
    14:00 +8°C° 0.7 mm 6 mps 747 mmHg 64%
    15:00 +7°C° 0.7 mm 5 mps 746 mmHg 70%
    16:00 +6°C° 0 mm 5 mps 747 mmHg 69%
    17:00 +5°C° 0 mm 4 mps 747 mmHg 69%
    18:00 +5°C° 0 mm 3 mps 748 mmHg 69%
    19:00 +4°C° 0 mm 4 mps 749 mmHg 67%
    20:00 +3°C° 0 mm 5 mps 749 mmHg 64%
    21:00 +2°C° 0 mm 7 mps 750 mmHg 61%
    22:00 +2°C° 0 mm 6 mps 750 mmHg 62%
    23:00 +2°C° 0 mm 6 mps 750 mmHg 63%

    24 January, Thursday

    Time Temperature Precipitation Wind Pressure Humidity
    00:00 +1°C° 0 mm 6 mps 750 mmHg 63%
    01:00 +1°C° 0 mm 6 mps 749 mmHg 63%
    02:00 +1°C° 0 mm 6 mps 749 mmHg 63%
    03:00 +1°C° 0 mm 6 mps 749 mmHg 63%
    04:00 +1°C° 0 mm 6 mps 749 mmHg 63%
    05:00 +1°C° 0 mm 6 mps 748 mmHg 63%
    06:00 -1°C° 0 mm 6 mps 748 mmHg 62%
    07:00 +2°C° 0 mm 7 mps 748 mmHg 56%
    08:00 +3°C° 0 mm 7 mps 749 mmHg 50%
    09:00 +4°C° 0 mm 8 mps 749 mmHg 44%
    10:00 +5°C° 0 mm 9 mps 749 mmHg 37%
    11:00 +6°C° 0 mm 9 mps 749 mmHg 30%
    12:00 +8°C° 0 mm 10 mps 748 mmHg 24%
    13:00 +8°C° 0 mm 9 mps 748 mmHg 26%
    14:00 +8°C° 0 mm 7 mps 748 mmHg 28%
    15:00 +8°C° 0 mm 6 mps 748 mmHg 30%
    16:00 +5°C° 0 mm 6 mps 749 mmHg 35%
    17:00 +4°C° 0 mm 6 mps 749 mmHg 40%
    18:00 +2°C° 0 mm 5 mps 750 mmHg 45%
    19:00 +1°C° 0 mm 5 mps 750 mmHg 46%
    20:00 +1°C° 0 mm 5 mps 751 mmHg 47%
    21:00 +1°C° 0 mm 5 mps 752 mmHg 48%
    22:00 +1°C° 0 mm 5 mps 753 mmHg 50%
    23:00 0°C° 0 mm 4 mps 753 mmHg 53%
    Show more